Regional Weather Roundup
Issued by NWS Grand Forks, ND

Home | Current Version | Previous Version | Text Only | Print | Product List | Glossary On
Versions: 1 2 3 4 5 6 7 8 9 10 11 12 13 14 15 16 17 18 19 20 21 22 23 24 25 26 27 28 29 30 31 32 33 34 35 36 37 38 39 40 41 42 43 44 45 46 47 48 49 50
000
ASUS43 KFGF 261531
RWRFGF
PRAIRIE TO PINES  WEATHER ROUNDUP
NATIONAL WEATHER SERVICE EASTERN NORTH DAKOTA/GRAND FORKS ND
1000 AM CDT SUN APR 26 2015

 **SATELLITE DATA USED TO AUGMENT SKY COVER AT AUTOMATED STATIONS**
 *****  WEATHER ACROSS EASTERN NORTH DAKOTA  *****

CITY           SKY/WX    TMP DP  RH WIND       PRES   REMARKS
GRAND FORKS    MOSUNNY   53  21  28 SW9       30.12S
GRAND FRKS AFB MOSUNNY   53  23  30 S13       30.12R
GRAND FRKS NWS   N/A     54 N/A N/A SW9         N/A
DEVILS LAKE    CLOUDY    54  37  54 S9        30.08R
FARGO          SUNNY     53   9  17 S6        30.11R
WAHPETON ARPT  SUNNY     50  19  29 SE10      30.12R
$$

 ***** WEATHER ACROSS CENTRAL AND WESTERN NORTH DAKOTA  *****

CITY           SKY/WX    TMP DP  RH WIND       PRES   REMARKS
BISMARCK       CLOUDY    48  46  93 E5        30.05R FOG
MINOT          CLOUDY    47  43  86 W9        30.04R
JAMESTOWN      PTSUNNY   54  38  54 S6        30.07R
MINOT AFB      CLOUDY    45  45 100 NW13      30.04S
GARRISON         N/A     44  42  93 NW14      30.04R
WILLISTON      CLOUDY    42  35  76 NW12      30.08R
DICKINSON      CLOUDY    43  39  86 N9        30.02R
HETTINGER      LGT RAIN  43  41  93 N10       30.03R
$$

 *****  OTHER AIRPORT OBSERVATIONS IN OUR AREA  *****

CITY           SKY/WX    TMP DP  RH WIND       PRES   REMARKS
WALHALLA       FAIR      55  37  50 S8        30.11R
GRAFTON AIRPOR FAIR      54  30  40 S12       30.13R
VALLEY CITY AR FAIR      52  34  50 S8        30.10R
CANDO          CLOUDY    48  41  76 S8        30.08R
CAVALIER APRT  FAIR      54  32  43 S12       30.12R
GWINNER        SUNNY     54  34  47 SE10      30.11S
SHEYENNE NWR     N/A     51  21  31 SE7       29.95S
ROLLA          CLOUDY    46  46 100 S14       30.06S FOG
 ***** THE ABOVE OBSERVATIONS ARE NON NWS ARE NOT QUALITY
       CONTROLLED AND MAY MIS-REPORT RAIN FOR SNOW...
$$

  *****  WEATHER ACROSS NORTHERN MINNESOTA  *****

CITY           SKY/WX    TMP DP  RH WIND       PRES   REMARKS
FLAG ISLAND    SUNNY     45  28  53 S5        30.16S
WARROAD        SUNNY     46  30  53 NE5       30.16S
ROSEAU         SUNNY     55  23  28 CALM      30.14S
HALLOCK        SUNNY     55  12  18 SW14      30.13R
THF RVR FALLS  SUNNY     52  18  25 S6        30.15R
BAUDETTE       SUNNY     50  18  28 S7        30.16S
WASKISH        SUNNY     52  25  35 CALM      30.16S
CROOKSTON      SUNNY     55  10  16 S14       30.14S
$$
  *****  WEATHER ACROSS CENTRAL AND WEST MINNESOTA  *****

CITY           SKY/WX    TMP DP  RH WIND       PRES   REMARKS
FOSSTON        SUNNY     54  23  30 CALM      30.14R
BEMIDJI        SUNNY     50  19  29 SE7       30.15S
PARK RAPIDS    SUNNY     49  13  23 SE8       30.13S
ELBOW LAKE     FAIR      50  25  36 E7        30.12R
WADENA         SUNNY     48  21  34 SE7       30.13S
DETROIT LAKES  SUNNY     50  16  25 SE10      30.14R
MOORHEAD       SUNNY     55   3  12 S10       30.13R
FERGUS FALLS   SUNNY     54  -2  10 SE12      30.13S
MORRIS MN      SUNNY     52  28  40 SE6       30.11R
STAPLES        SUNNY     48  16  27 E5        30.14S
$$
  *****  WEATHER ELSEWHERE ACROSS MINNESOTA  *****

CITY           SKY/WX    TMP DP  RH WIND       PRES   REMARKS
DULUTH         SUNNY     46  16  30 E10       30.15R
INTRNTL FALLS  SUNNY     47  18  31 VRB5      30.18S
ELY            SUNNY     46  19  34 N3        30.16S
CLOQUET        SUNNY     46  12  25 SE8       30.16R
WHEATON        SUNNY     46  28  49 SE6       30.13S
BRAINERD       SUNNY     46  17  31 VRB6      30.15S
HIBBING        SUNNY     48  16  27 CALM      30.16S
ALEXANDRIA     SUNNY     47  22  37 E9        30.13S
SAINT CLOUD    SUNNY     46  25  43 NE7       30.13R
MINNEAPOLIS    SUNNY     48  24  39 CALM      30.12R
$$

  *****  WEATHER ACROSS SOUTH DAKOTA  *****

CITY           SKY/WX    TMP DP  RH WIND       PRES   REMARKS
SIOUX FALLS    MOSUNNY   52  40  63 E7        30.08R
BROOKINGS      SUNNY     54  39  58 E7        30.08S
WATERTOWN      SUNNY     53  38  56 S3        30.07R
HURON          SUNNY     54  38  54 SE9       30.07R
SISSETON         N/A     48  33  56 VRB6      30.10R
ABERDEEN       MOSUNNY   57  38  48 S12       30.08R
MITCHELL       SUNNY     53  41  63 SE14      30.07R
PIERRE         PTSUNNY   53  43  68 E14       30.01R
MOBRIDGE       CLOUDY    53  42  66 SE10      30.01R
RAPID CITY     LGT RAIN  43  42  97 N13       29.97R FOG
$$

  *****  SOME WEATHER IN NEARBY STATES *****

CITY           SKY/WX    TMP DP  RH WIND       PRES   REMARKS
GLASGOW MT     CLOUDY    38  31  76 W9        30.10R
GREAT FALLS MT CLOUDY    32  25  75 N12       30.13R WCI  23
CHEYENNE WY    LGT RAIN  41  39  93 SE12      29.87R FOG
SCOTTSBLUFF NE RAIN      46  32  58 SE16      29.90R
OMAHA NE       PTSUNNY   50  39  66 E9        30.05R
DES MOINES IA  MOSUNNY   52  31  44 E9        30.05R
DAVENPORT IA   SUNNY     48  30  49 E13       30.05R
CHICAGO IL     SUNNY     48  28  46 NE9       30.02R
EAU CLAIRE WI  SUNNY     46  22  38 E5        30.12R
LA CROSSE WI   SUNNY     49  26  41 VRB3      30.11R
$$

  *****  SOME NATIONAL WEATHER *****

CITY           SKY/WX    TMP DP  RH WIND       PRES   REMARKS
LA GUARDIA NY  MOSUNNY   53  30  41 NE9       29.71S
RALEIGH NC     CLOUDY    48  45  89 NE8       29.70R
ATLANTA GA     MOSUNNY   73  63  70 W9        29.71R
NEW ORLEANS LA CLOUDY    74  71  91 SW6       29.80R FOG
OKLAHOMA CITY  PTSUNNY   62  54  74 NE17      29.77S
ALBUQUERQUE NM CLOUDY    44  38  79 N8        29.79F
SALT LAKE CITY LGT RAIN  40  36  86 N8        29.93R
LOS ANGELES CA MOSUNNY   57  50  77 SE8       29.99R
BOISE ID       SUNNY     41  27  57 NW14      30.07R
SEATTLE WA     CLOUDY    43  36  76 SE7       30.18R
$$

*** WEATHER ACROSS MANITOBA...SASKATCHEWAN AND ONTARIO ***
                ***ONTARIO***

CITY           SKY/WX    TMP DP  RH WIND       PRES   REMARKS
GERALDTON      MOSUNNY   41  28  60 NW9G17    30.15S
THUNDER BAY    SUNNY     46  27  46 E8        30.18S
SIOUX LOOKOUT  MOSUNNY   45  21  39 SE5       30.21S
TORONTO        MOSUNNY   50  34  53 N10G17    29.85F
BIG TROUT LK   SUNNY     32  25  74 CALM      30.31S
PICKLE LAKE    MOSUNNY   39  27  60 VRB3      30.23S
DRYDEN         SUNNY     46  16  29 NE5       30.20R
KENORA         MOSUNNY   50  23  34 E3        30.18S
$$
                *** MANITOBA***

CITY           SKY/WX    TMP DP  RH WIND       PRES   REMARKS
BRANDON        LGT RAIN  48  46  93 S9        30.04S FOG
DAUPHIN        CLOUDY    46  41  81 E5        30.01R
ISLAND LAKE    PTSUNNY   41  23  48 SE13      30.23S
PILOT MOUND      N/A     50  43  76 S15         N/A
THE PAS        CLOUDY    36  32  87 E7        30.03F
THOMPSON       CLOUDY    36  28  75 NE9       30.22F
WINNIPEG       PTSUNNY   54  32  43 S10       30.13R
LYNN LAKE      FLURRIES  32  23  69 E8        30.25S WCI  25
CHURCHILL      MOSUNNY   28  21  74 VRB2      30.39R
GILLAM         MOSUNNY   41  27  56 NE3       30.29F
$$
                ***SASKATCHEWAN***

CITY           SKY/WX    TMP DP  RH WIND       PRES   REMARKS
ESTEVAN        CLOUDY    37  36  93 W10G17    30.06R
KINDERSLEY     CLOUDY    32  27  80 NW9       30.10R WCI  24
LLOYDMINSTER   MOSUNNY   37  12  35 N12       30.10S
PRINCE ALBERT  LGT SNOW  34  32  93 N9        29.98R FOG
REGINA         CLOUDY    36  32  87 W23       30.04R
YORKTON        CLOUDY    41  37  87 SW13G21   29.97R
N. BATTLEFORD  NOT AVBL
LA RONGE       LGT SNOW  32  30  93 NE13      30.12S WCI  22
SASKATOON      CLOUDY    34  30  86 NW16      30.02R WCI  23
SWIFT CURRENT  CLOUDY    30  28  93 NW20      30.07R WCI  18
$$
NOTE: THESE ARE AUTOMATED STATIONS WITH LIMITED QUALITY CONTROL
      "FAIR" INDICATES FEW OR NO CLOUDS BELOW 12,000 FEET WITH NO
      SIGNIFICANT WEATHER AND/OR OBSTRUCTIONS TO VISIBILITY.
      SKY/WX - SKY CONDITION AND SIGNIFICANT WEATHER.
      TMP - AIR TEMPERATURE.    DP   - DEWPOINT TEMPERATURE.
      RH  - RELATIVE HUMIDITY.  PRES - PRESSURE.
      HX  - HEAT INDEX.         WCI  - WIND CHILL INDEX.
$


USA.gov is the U.S. government's official web portal to all federal, state and local government web resources and services.